Year,Month,Day,Hour,Minute,Value (Times are PST for windspeed in km/hr)
2010,01,19,00,00,6.30
2010,01,19,00,01,6.20
2010,01,19,00,02,6.00
2010,01,19,00,03,6.40
2010,01,19,00,04,6.00
2010,01,19,00,05,5.80
2010,01,19,00,06,6.00
2010,01,19,00,07,6.20
2010,01,19,00,08,5.80
2010,01,19,00,09,6.00
2010,01,19,00,10,6.80
2010,01,19,00,11,6.90
2010,01,19,00,12,7.20
2010,01,19,00,13,7.00
2010,01,19,00,14,6.90
2010,01,19,00,15,6.80
2010,01,19,00,16,6.80
2010,01,19,00,17,7.10
2010,01,19,00,18,6.70
2010,01,19,00,19,6.40
2010,01,19,00,20,7.20
2010,01,19,00,21,6.20
2010,01,19,00,22,6.40
2010,01,19,00,23,5.20
2010,01,19,00,24,5.10
2010,01,19,00,25,5.50
2010,01,19,00,26,4.70
2010,01,19,00,27,4.20
2010,01,19,00,28,4.40
2010,01,19,00,29,3.10
2010,01,19,00,30,4.00
2010,01,19,00,31,4.70
2010,01,19,00,32,4.10
2010,01,19,00,33,5.10
2010,01,19,00,34,6.30
2010,01,19,00,35,4.60
2010,01,19,00,36,5.30
2010,01,19,00,37,4.80
2010,01,19,00,38,4.80
2010,01,19,00,39,4.10
2010,01,19,00,40,4.70
2010,01,19,00,41,5.50
2010,01,19,00,42,5.70
2010,01,19,00,43,3.90
2010,01,19,00,44,3.10
2010,01,19,00,45,3.80
2010,01,19,00,46,2.10
2010,01,19,00,47,3.40
2010,01,19,00,48,3.50
2010,01,19,00,49,4.60
2010,01,19,00,50,2.20
2010,01,19,00,51,3.80
2010,01,19,00,52,3.50
2010,01,19,00,53,3.60
2010,01,19,00,54,3.90
2010,01,19,00,55,3.00
2010,01,19,00,56,4.70
2010,01,19,00,57,5.70
2010,01,19,00,58,4.80
2010,01,19,00,59,3.00
2010,01,19,01,00,3.40
2010,01,19,01,01,4.70
2010,01,19,01,02,4.70
2010,01,19,01,03,3.70
2010,01,19,01,04,3.50
2010,01,19,01,05,2.70
2010,01,19,01,06,1.70
2010,01,19,01,07,3.50
2010,01,19,01,08,4.30
2010,01,19,01,09,6.00
2010,01,19,01,10,5.20
2010,01,19,01,11,4.00
2010,01,19,01,12,0.60
2010,01,19,01,13,0.20
2010,01,19,01,14,0.20
2010,01,19,01,15,1.10
2010,01,19,01,16,2.00
2010,01,19,01,17,1.10
2010,01,19,01,18,2.00
2010,01,19,01,19,3.90
2010,01,19,01,20,3.90
2010,01,19,01,21,3.40
2010,01,19,01,22,4.80
2010,01,19,01,23,5.30
2010,01,19,01,24,5.50
2010,01,19,01,25,4.00
2010,01,19,01,26,3.20
2010,01,19,01,27,2.70
2010,01,19,01,28,2.80
2010,01,19,01,29,3.20
2010,01,19,01,30,3.00
2010,01,19,01,31,4.10
2010,01,19,01,32,4.60
2010,01,19,01,33,5.50
2010,01,19,01,34,6.00
2010,01,19,01,35,5.90
2010,01,19,01,36,4.30
2010,01,19,01,37,4.00
2010,01,19,01,38,2.80
2010,01,19,01,39,2.30
2010,01,19,01,40,3.70
2010,01,19,01,41,1.30
2010,01,19,01,42,2.10
2010,01,19,01,43,4.00
2010,01,19,01,44,3.20
2010,01,19,01,45,2.10
2010,01,19,01,46,0.80
2010,01,19,01,47,0.60
2010,01,19,01,48,2.30
2010,01,19,01,49,0.20
2010,01,19,01,50,0.50
2010,01,19,01,51,1.70
2010,01,19,01,52,2.30
2010,01,19,01,53,3.40
2010,01,19,01,54,4.20
2010,01,19,01,55,6.40
2010,01,19,01,56,5.90
2010,01,19,01,57,4.50
2010,01,19,01,58,3.30
2010,01,19,01,59,4.50
2010,01,19,02,00,6.00
2010,01,19,02,01,6.00
2010,01,19,02,02,5.70
2010,01,19,02,03,4.40
2010,01,19,02,04,3.90
2010,01,19,02,05,4.60
2010,01,19,02,06,3.90
2010,01,19,02,07,3.90
2010,01,19,02,08,2.40
2010,01,19,02,09,2.00
2010,01,19,02,10,2.10
2010,01,19,02,11,3.00
2010,01,19,02,12,3.00
2010,01,19,02,13,2.50
2010,01,19,02,14,0.40
2010,01,19,02,15,0.90
2010,01,19,02,16,0.50
2010,01,19,02,17,0.00
2010,01,19,02,18,0.10
2010,01,19,02,19,1.90
2010,01,19,02,20,0.60
2010,01,19,02,21,0.00
2010,01,19,02,22,0.00
2010,01,19,02,23,0.00
2010,01,19,02,24,0.00
2010,01,19,02,25,0.00
2010,01,19,02,26,0.00
2010,01,19,02,27,0.00
2010,01,19,02,28,1.40
2010,01,19,02,29,3.00
2010,01,19,02,30,2.10
2010,01,19,02,31,1.10
2010,01,19,02,32,0.00
2010,01,19,02,33,0.00
2010,01,19,02,34,0.00
2010,01,19,02,35,0.00
2010,01,19,02,36,0.00
2010,01,19,02,37,0.00
2010,01,19,02,38,0.20
2010,01,19,02,39,1.70
2010,01,19,02,40,1.90
2010,01,19,02,41,2.50
2010,01,19,02,42,2.30
2010,01,19,02,43,3.00
2010,01,19,02,44,3.50
2010,01,19,02,45,2.40
2010,01,19,02,46,3.20
2010,01,19,02,47,2.20
2010,01,19,02,48,2.60
2010,01,19,02,49,3.30
2010,01,19,02,50,4.10
2010,01,19,02,51,4.80
2010,01,19,02,52,5.00
2010,01,19,02,53,5.10
2010,01,19,02,54,5.60
2010,01,19,02,55,6.30
2010,01,19,02,56,5.50
2010,01,19,02,57,5.90
2010,01,19,02,58,6.10
2010,01,19,02,59,4.10
2010,01,19,03,00,3.00
2010,01,19,03,01,4.10
2010,01,19,03,02,4.80
2010,01,19,03,03,5.10
2010,01,19,03,06,6.50
2010,01,19,03,07,6.90
2010,01,19,03,08,7.10
2010,01,19,03,09,6.60
2010,01,19,03,10,6.30
2010,01,19,03,11,6.80
2010,01,19,03,12,7.60
2010,01,19,03,13,5.90
2010,01,19,03,14,6.90
2010,01,19,03,15,5.30
2010,01,19,03,16,5.20
2010,01,19,03,17,2.70
2010,01,19,03,18,3.00
2010,01,19,03,19,3.80
2010,01,19,03,20,5.10
2010,01,19,03,21,3.50
2010,01,19,03,22,3.90
2010,01,19,03,23,3.70
2010,01,19,03,24,5.40
2010,01,19,03,25,3.90
2010,01,19,03,26,4.20
2010,01,19,03,27,3.70
2010,01,19,03,28,3.30
2010,01,19,03,29,4.00
2010,01,19,03,30,5.40
2010,01,19,03,31,5.90
2010,01,19,03,32,6.40
2010,01,19,03,33,3.80
2010,01,19,03,34,5.10
2010,01,19,03,35,4.00
2010,01,19,03,36,3.10
2010,01,19,03,37,3.90
2010,01,19,03,38,5.40
2010,01,19,03,39,2.50
2010,01,19,03,40,3.50
2010,01,19,03,41,1.50
2010,01,19,03,42,2.20
2010,01,19,03,43,3.50
2010,01,19,03,44,4.70
2010,01,19,03,45,2.30
2010,01,19,03,46,2.00
2010,01,19,03,47,1.80
2010,01,19,03,48,0.00
2010,01,19,03,49,0.30
2010,01,19,03,50,0.50
2010,01,19,03,51,0.00
2010,01,19,03,52,0.00
2010,01,19,03,53,0.00
2010,01,19,03,54,1.00
2010,01,19,03,55,2.30
2010,01,19,03,56,2.60
2010,01,19,03,57,3.60
2010,01,19,03,58,2.50
2010,01,19,03,59,3.00
2010,01,19,04,00,2.30
2010,01,19,04,01,0.60
2010,01,19,04,02,2.40
2010,01,19,04,03,2.60
2010,01,19,04,04,3.00
2010,01,19,04,05,2.90
2010,01,19,04,06,2.00
2010,01,19,04,07,1.90
2010,01,19,04,08,1.40
2010,01,19,04,09,0.90
2010,01,19,04,10,3.00
2010,01,19,04,11,3.50
2010,01,19,04,12,2.20
2010,01,19,04,13,3.50
2010,01,19,04,14,4.90
2010,01,19,04,15,4.80
2010,01,19,04,16,3.50
2010,01,19,04,17,3.30
2010,01,19,04,18,4.10
2010,01,19,04,19,4.70
2010,01,19,04,20,3.00
2010,01,19,04,21,1.90
2010,01,19,04,22,5.10
2010,01,19,04,23,8.00
2010,01,19,04,24,7.00
2010,01,19,04,25,4.90
2010,01,19,04,26,6.20
2010,01,19,04,27,7.30
2010,01,19,04,28,7.30
2010,01,19,04,29,6.00
2010,01,19,04,30,6.30
2010,01,19,04,31,6.00
2010,01,19,04,32,6.30
2010,01,19,04,33,5.80
2010,01,19,04,34,5.80
2010,01,19,04,35,4.40
2010,01,19,04,36,3.20
2010,01,19,04,37,3.10
2010,01,19,04,38,1.40
2010,01,19,04,39,0.00
2010,01,19,04,40,0.10
2010,01,19,04,41,2.50
2010,01,19,04,42,2.00
2010,01,19,04,43,4.40
2010,01,19,04,44,3.00
2010,01,19,04,45,0.20
2010,01,19,04,46,1.60
2010,01,19,04,47,1.80
2010,01,19,04,48,6.30
2010,01,19,04,49,9.70
2010,01,19,04,50,8.80
2010,01,19,04,51,8.40
2010,01,19,04,52,6.40
2010,01,19,04,53,4.00
2010,01,19,04,54,3.40
2010,01,19,04,55,4.70
2010,01,19,04,56,7.30
2010,01,19,04,57,5.00
2010,01,19,04,58,0.20
2010,01,19,04,59,0.00
2010,01,19,05,00,3.10
2010,01,19,05,01,3.20
2010,01,19,05,02,2.10
2010,01,19,05,03,2.90
2010,01,19,05,04,4.50
2010,01,19,05,05,4.70
2010,01,19,05,06,3.90
2010,01,19,05,07,4.40
2010,01,19,05,08,6.90
2010,01,19,05,09,4.50
2010,01,19,05,10,3.60
2010,01,19,05,11,2.60
2010,01,19,05,12,1.80
2010,01,19,05,13,0.80
2010,01,19,05,14,0.00
2010,01,19,05,15,1.40
2010,01,19,05,16,2.70
2010,01,19,05,17,1.70
2010,01,19,05,18,0.00
2010,01,19,05,19,0.00
2010,01,19,05,20,0.00
2010,01,19,05,21,0.00
2010,01,19,05,22,0.10
2010,01,19,05,23,2.80
2010,01,19,05,24,2.80
2010,01,19,05,25,2.20
2010,01,19,05,26,2.90
2010,01,19,05,27,1.50
2010,01,19,05,28,2.00
2010,01,19,05,29,4.00
2010,01,19,05,30,3.90
2010,01,19,05,31,3.60
2010,01,19,05,32,2.40
2010,01,19,05,33,0.60
2010,01,19,05,34,2.10
2010,01,19,05,35,2.80
2010,01,19,05,36,4.00
2010,01,19,05,37,4.60
2010,01,19,05,38,5.20
2010,01,19,05,39,5.00
2010,01,19,05,40,4.00
2010,01,19,05,41,6.60
2010,01,19,05,42,4.30
2010,01,19,05,43,2.60
2010,01,19,05,44,3.90
2010,01,19,05,45,3.40
2010,01,19,05,46,3.40
2010,01,19,05,47,2.60
2010,01,19,05,48,1.60
2010,01,19,05,49,1.50
2010,01,19,05,50,0.60
2010,01,19,05,51,0.50
2010,01,19,05,52,0.60
2010,01,19,05,53,0.00
2010,01,19,05,54,0.00
2010,01,19,05,55,0.00
2010,01,19,05,56,0.00
2010,01,19,05,57,0.00
2010,01,19,05,58,0.00
2010,01,19,05,59,1.40
2010,01,19,06,00,2.60
2010,01,19,06,01,2.40
2010,01,19,06,02,2.60
2010,01,19,06,03,2.90
2010,01,19,06,04,2.60
2010,01,19,06,05,1.20
2010,01,19,06,06,0.20
2010,01,19,06,07,1.50
2010,01,19,06,08,2.70
2010,01,19,06,09,0.60
2010,01,19,06,10,1.00
2010,01,19,06,11,1.90
2010,01,19,06,12,0.70
2010,01,19,06,13,0.00
2010,01,19,06,14,0.00
2010,01,19,06,15,0.00
2010,01,19,06,16,0.00
2010,01,19,06,17,0.20
2010,01,19,06,18,1.30
2010,01,19,06,19,1.80
2010,01,19,06,20,3.50
2010,01,19,06,21,5.80
2010,01,19,06,22,7.30
2010,01,19,06,23,7.30
2010,01,19,06,24,7.00
2010,01,19,06,25,6.10
2010,01,19,06,26,5.80
2010,01,19,06,27,6.30
2010,01,19,06,28,6.60
2010,01,19,06,29,8.30
2010,01,19,06,30,10.30
2010,01,19,06,31,10.50
2010,01,19,06,32,11.70
2010,01,19,06,33,15.30
2010,01,19,06,34,14.50
2010,01,19,06,35,11.20
2010,01,19,06,36,13.20
2010,01,19,06,37,12.40
2010,01,19,06,38,14.10
2010,01,19,06,39,10.80
2010,01,19,06,40,11.50
2010,01,19,06,41,15.00
2010,01,19,06,42,14.20
2010,01,19,06,43,15.00
2010,01,19,06,44,15.50
2010,01,19,06,45,14.60
2010,01,19,06,46,17.50
2010,01,19,06,47,18.30
2010,01,19,06,48,19.10
2010,01,19,06,49,17.10
2010,01,19,06,50,14.30
2010,01,19,06,51,17.10
2010,01,19,06,52,16.10
2010,01,19,06,53,11.90
2010,01,19,06,54,13.00
2010,01,19,06,55,16.20
2010,01,19,06,56,20.20
2010,01,19,06,57,19.80
2010,01,19,06,58,24.20
2010,01,19,06,59,18.20
2010,01,19,07,00,15.30
2010,01,19,07,01,17.90
2010,01,19,07,02,13.40
2010,01,19,07,03,18.00
2010,01,19,07,04,11.30
2010,01,19,07,05,11.10
2010,01,19,07,06,16.80
2010,01,19,07,07,15.10
2010,01,19,07,08,13.80
2010,01,19,07,09,13.50
2010,01,19,07,10,11.10
2010,01,19,07,11,13.70
2010,01,19,07,12,14.00
2010,01,19,07,13,12.20
2010,01,19,07,14,13.10
2010,01,19,07,15,11.90
2010,01,19,07,16,11.50
2010,01,19,07,17,11.30
2010,01,19,07,18,14.00
2010,01,19,07,19,11.70
2010,01,19,07,20,11.20
2010,01,19,07,21,9.20
2010,01,19,07,22,15.40
2010,01,19,07,23,14.00
2010,01,19,07,24,17.60
2010,01,19,07,25,14.40
2010,01,19,07,26,13.30
2010,01,19,07,27,13.40
2010,01,19,07,28,8.90
2010,01,19,07,29,9.70
2010,01,19,07,30,9.70
2010,01,19,07,31,7.70
2010,01,19,07,32,9.60
2010,01,19,07,33,7.90
2010,01,19,07,34,9.20
2010,01,19,07,35,7.40
2010,01,19,07,36,6.30
2010,01,19,07,37,7.70
2010,01,19,07,38,8.40
2010,01,19,07,39,8.50
2010,01,19,07,40,7.80
2010,01,19,07,41,7.10
2010,01,19,07,42,11.40
2010,01,19,07,43,8.60
2010,01,19,07,44,8.10
2010,01,19,07,45,12.00
2010,01,19,07,46,9.90
2010,01,19,07,47,8.00
2010,01,19,07,48,7.60
2010,01,19,07,49,7.30
2010,01,19,07,50,8.10
2010,01,19,07,51,10.50
2010,01,19,07,52,9.80
2010,01,19,07,53,12.40
2010,01,19,07,54,12.50
2010,01,19,07,55,15.30
2010,01,19,07,56,12.50
2010,01,19,07,57,15.20
2010,01,19,07,58,11.60
2010,01,19,07,59,12.80
2010,01,19,08,00,10.40
2010,01,19,08,01,11.30
2010,01,19,08,02,9.00
2010,01,19,08,03,9.80
2010,01,19,08,04,11.70
2010,01,19,08,05,9.80
2010,01,19,08,06,12.80
2010,01,19,08,07,14.00
2010,01,19,08,08,14.40
2010,01,19,08,09,11.70
2010,01,19,08,10,11.40
2010,01,19,08,11,17.50
2010,01,19,08,12,14.90
2010,01,19,08,13,15.40
2010,01,19,08,14,14.80
2010,01,19,08,15,18.30
2010,01,19,08,16,13.10
2010,01,19,08,17,13.00
2010,01,19,08,18,16.20
2010,01,19,08,19,16.70
2010,01,19,08,20,19.90
2010,01,19,08,21,15.60
2010,01,19,08,22,14.30
2010,01,19,08,23,12.50
2010,01,19,08,24,12.00
2010,01,19,08,25,15.20
2010,01,19,08,26,13.40
2010,01,19,08,27,15.30
2010,01,19,08,28,9.60
2010,01,19,08,29,12.10
2010,01,19,08,30,13.40
2010,01,19,08,31,14.80
2010,01,19,08,32,12.50
2010,01,19,08,33,12.90
2010,01,19,08,34,14.30
2010,01,19,08,35,13.60
2010,01,19,08,36,13.60
2010,01,19,08,37,12.10
2010,01,19,08,38,9.60
2010,01,19,08,39,8.90
2010,01,19,08,40,11.40
2010,01,19,08,41,9.00
2010,01,19,08,42,9.20
2010,01,19,08,43,11.30
2010,01,19,08,44,12.00
2010,01,19,08,45,10.10
2010,01,19,08,46,14.70
2010,01,19,08,47,11.30
2010,01,19,08,48,13.40
2010,01,19,08,49,14.60
2010,01,19,08,50,14.50
2010,01,19,08,51,17.90
2010,01,19,08,52,16.50
2010,01,19,08,53,16.50
2010,01,19,08,54,15.50
2010,01,19,08,55,15.30
2010,01,19,08,56,12.20
2010,01,19,08,57,13.80
2010,01,19,08,58,17.70
2010,01,19,08,59,17.70
2010,01,19,09,00,17.90
2010,01,19,09,01,17.00
2010,01,19,09,02,13.10
2010,01,19,09,03,15.00
2010,01,19,09,04,16.70
2010,01,19,09,05,15.00
2010,01,19,09,06,14.70
2010,01,19,09,07,13.80
2010,01,19,09,08,15.90
2010,01,19,09,09,13.50
2010,01,19,09,10,13.00
2010,01,19,09,11,15.90
2010,01,19,09,12,13.40
2010,01,19,09,13,12.00
2010,01,19,09,14,11.80
2010,01,19,09,15,12.20
2010,01,19,09,16,10.70
2010,01,19,09,17,10.40
2010,01,19,09,18,10.80
2010,01,19,09,19,9.80
2010,01,19,09,20,10.30
2010,01,19,09,21,12.10
2010,01,19,09,22,11.90
2010,01,19,09,23,10.30
2010,01,19,09,24,10.50
2010,01,19,09,25,10.40
2010,01,19,09,26,12.10
2010,01,19,09,27,12.20
2010,01,19,09,28,13.80
2010,01,19,09,29,12.40
2010,01,19,09,30,12.10
2010,01,19,09,31,12.20
2010,01,19,09,32,12.40
2010,01,19,09,33,12.80
2010,01,19,09,34,10.50
2010,01,19,09,35,12.20
2010,01,19,09,36,11.30
2010,01,19,09,37,12.00
2010,01,19,09,38,14.80
2010,01,19,09,39,11.60
2010,01,19,09,40,11.00
2010,01,19,09,41,11.20
2010,01,19,09,42,12.90
2010,01,19,09,43,16.20
2010,01,19,09,44,16.60
2010,01,19,09,45,14.60
2010,01,19,09,46,15.50
2010,01,19,09,47,15.80
2010,01,19,09,48,14.30
2010,01,19,09,49,13.80
2010,01,19,09,50,11.10
2010,01,19,09,51,17.00
2010,01,19,09,52,15.00
2010,01,19,09,53,13.00
2010,01,19,09,54,12.70
2010,01,19,09,55,12.90
2010,01,19,09,56,13.00
2010,01,19,09,57,13.30
2010,01,19,09,58,12.10
2010,01,19,09,59,22.00
2010,01,19,10,00,13.40
2010,01,19,10,01,18.50
2010,01,19,10,02,16.90
2010,01,19,10,03,21.00
2010,01,19,10,04,22.50
2010,01,19,10,05,17.80
2010,01,19,10,06,19.80
2010,01,19,10,07,18.70
2010,01,19,10,08,22.20
2010,01,19,10,09,20.20
2010,01,19,10,10,18.50
2010,01,19,10,11,17.50
2010,01,19,10,12,19.80
2010,01,19,10,13,23.20
2010,01,19,10,14,26.00
2010,01,19,10,15,21.20
2010,01,19,10,16,24.60
2010,01,19,10,17,20.30
2010,01,19,10,18,23.60
2010,01,19,10,19,24.00
2010,01,19,10,20,20.00
2010,01,19,10,21,19.10
2010,01,19,10,22,19.30
2010,01,19,10,23,24.20
2010,01,19,10,24,18.30
2010,01,19,10,25,16.80
2010,01,19,10,26,19.70
2010,01,19,10,27,17.80
2010,01,19,10,28,18.30
2010,01,19,10,29,19.60
2010,01,19,10,30,20.40
2010,01,19,10,31,23.50
2010,01,19,10,32,19.60
2010,01,19,10,33,22.40
2010,01,19,10,34,22.30
2010,01,19,10,35,16.70
2010,01,19,10,36,21.60
2010,01,19,10,37,19.40
2010,01,19,10,38,15.80
2010,01,19,10,39,16.20
2010,01,19,10,40,12.70
2010,01,19,10,41,15.90
2010,01,19,10,42,19.20
2010,01,19,10,43,17.50
2010,01,19,10,44,15.50
2010,01,19,10,45,14.50
2010,01,19,10,46,12.70
2010,01,19,10,47,14.80
2010,01,19,10,48,17.10
2010,01,19,10,49,19.90
2010,01,19,10,50,17.90
2010,01,19,10,51,18.00
2010,01,19,10,52,19.40
2010,01,19,10,53,14.90
2010,01,19,10,54,12.80
2010,01,19,10,55,16.90
2010,01,19,10,56,23.70
2010,01,19,10,57,19.60
2010,01,19,10,58,18.70
2010,01,19,10,59,21.90
2010,01,19,11,00,17.50
2010,01,19,11,01,20.00
2010,01,19,11,02,19.10
2010,01,19,11,03,14.00
2010,01,19,11,04,14.20
2010,01,19,11,05,14.90
2010,01,19,11,06,23.80
2010,01,19,11,07,21.20
2010,01,19,11,08,21.00
2010,01,19,11,09,20.80
2010,01,19,11,10,15.90
2010,01,19,11,11,20.00
2010,01,19,11,12,21.50
2010,01,19,11,13,16.90
2010,01,19,11,14,18.80
2010,01,19,11,15,19.20
2010,01,19,11,16,20.00
2010,01,19,11,17,21.20
2010,01,19,11,18,22.00
2010,01,19,11,19,20.30
2010,01,19,11,20,19.80
2010,01,19,11,21,19.60
2010,01,19,11,22,22.80
2010,01,19,11,23,24.70
2010,01,19,11,24,18.50
2010,01,19,11,25,21.60
2010,01,19,11,26,15.20
2010,01,19,11,27,16.70
2010,01,19,11,28,19.60
2010,01,19,11,29,17.00
2010,01,19,11,30,21.60
2010,01,19,11,31,16.50
2010,01,19,11,32,18.70
2010,01,19,11,33,17.90
2010,01,19,11,34,18.20
2010,01,19,11,35,18.80
2010,01,19,11,36,20.80
2010,01,19,11,37,18.90
2010,01,19,11,38,20.40
2010,01,19,11,39,19.90
2010,01,19,11,40,16.40
2010,01,19,11,41,20.80
2010,01,19,11,42,25.30
2010,01,19,11,43,21.80
2010,01,19,11,44,23.00
2010,01,19,11,45,21.80
2010,01,19,11,46,23.60
2010,01,19,11,47,25.30
2010,01,19,11,48,20.40
2010,01,19,11,49,23.00
2010,01,19,11,50,21.20
2010,01,19,11,51,25.00
2010,01,19,11,52,31.40
2010,01,19,11,53,29.80
2010,01,19,11,54,24.70
2010,01,19,11,55,19.60
2010,01,19,11,56,22.50
2010,01,19,11,57,20.10
2010,01,19,11,58,21.40
2010,01,19,11,59,18.20
2010,01,19,12,00,22.70
2010,01,19,12,01,23.20
2010,01,19,12,02,24.30
2010,01,19,12,03,22.40
2010,01,19,12,04,20.70
2010,01,19,12,05,24.50
2010,01,19,12,06,27.40
2010,01,19,12,07,25.20
2010,01,19,12,08,19.10
2010,01,19,12,09,26.70
2010,01,19,12,10,22.30
2010,01,19,12,11,25.70
2010,01,19,12,12,24.00
2010,01,19,12,13,23.60
2010,01,19,12,14,23.80
2010,01,19,12,15,23.70
2010,01,19,12,16,24.80
2010,01,19,12,17,24.60
2010,01,19,12,18,26.80
2010,01,19,12,19,23.70
2010,01,19,12,20,25.80
2010,01,19,12,21,26.40
2010,01,19,12,22,20.80
2010,01,19,12,23,23.70
2010,01,19,12,24,21.70
2010,01,19,12,25,22.70
2010,01,19,12,26,26.60
2010,01,19,12,27,21.60
2010,01,19,12,28,26.40
2010,01,19,12,29,20.10
2010,01,19,12,30,22.40
2010,01,19,12,31,20.10
2010,01,19,12,32,20.70
2010,01,19,12,33,21.60
2010,01,19,12,34,19.60
2010,01,19,12,35,17.70
2010,01,19,12,36,20.50
2010,01,19,12,37,23.30
2010,01,19,12,38,22.00
2010,01,19,12,39,20.00
2010,01,19,12,40,19.20
2010,01,19,12,41,19.10
2010,01,19,12,42,22.20
2010,01,19,12,43,21.00
2010,01,19,12,44,18.30
2010,01,19,12,45,16.60
2010,01,19,12,46,18.10
2010,01,19,12,47,18.40
2010,01,19,12,48,17.90
2010,01,19,12,49,16.90
2010,01,19,12,50,17.20
2010,01,19,12,51,17.10
2010,01,19,12,52,20.10
2010,01,19,12,53,17.50
2010,01,19,12,54,17.50
2010,01,19,12,55,18.70
2010,01,19,12,56,19.90
2010,01,19,12,57,19.20
2010,01,19,12,58,19.30
2010,01,19,12,59,19.00
2010,01,19,13,00,18.00
2010,01,19,13,01,17.30
2010,01,19,13,02,16.20
2010,01,19,13,03,17.70
2010,01,19,13,04,22.10
2010,01,19,13,05,19.10
2010,01,19,13,06,17.70
2010,01,19,13,07,22.40
2010,01,19,13,08,20.70
2010,01,19,13,09,17.80
2010,01,19,13,10,18.70
2010,01,19,13,11,19.20
2010,01,19,13,12,19.90
2010,01,19,13,13,17.30
2010,01,19,13,14,19.00
2010,01,19,13,15,20.50
2010,01,19,13,16,20.00
2010,01,19,13,17,19.60
2010,01,19,13,18,22.50
2010,01,19,13,19,19.40
2010,01,19,13,20,17.10
2010,01,19,13,21,18.50
2010,01,19,13,22,18.30
2010,01,19,13,23,18.30
2010,01,19,13,24,17.30
2010,01,19,13,25,21.60
2010,01,19,13,26,20.70
2010,01,19,13,27,18.10
2010,01,19,13,28,17.80
2010,01,19,13,29,18.20
2010,01,19,13,30,20.40
2010,01,19,13,31,19.90
2010,01,19,13,32,16.30
2010,01,19,13,33,19.10
2010,01,19,13,34,18.30
2010,01,19,13,35,20.30
2010,01,19,13,36,19.50
2010,01,19,13,37,19.30
2010,01,19,13,38,21.70
2010,01,19,13,39,20.10
2010,01,19,13,40,21.60
2010,01,19,13,41,19.10
2010,01,19,13,42,22.00
2010,01,19,13,43,22.50
2010,01,19,13,44,22.10
2010,01,19,13,45,24.90
2010,01,19,13,46,22.40
2010,01,19,13,47,21.20
2010,01,19,13,48,24.00
2010,01,19,13,49,23.30
2010,01,19,13,50,21.50
2010,01,19,13,51,18.70
2010,01,19,13,52,23.50
2010,01,19,13,53,23.30
2010,01,19,13,54,23.20
2010,01,19,13,55,21.30
2010,01,19,13,56,19.50
2010,01,19,13,57,21.70
2010,01,19,13,58,19.20
2010,01,19,13,59,20.40
2010,01,19,14,00,22.30
2010,01,19,14,01,19.50
2010,01,19,14,02,19.60
2010,01,19,14,03,21.40
2010,01,19,14,04,21.60
2010,01,19,14,05,20.30
2010,01,19,14,06,23.00
2010,01,19,14,07,21.80
2010,01,19,14,08,21.90
2010,01,19,14,09,19.10
2010,01,19,14,10,24.70
2010,01,19,14,11,22.70
2010,01,19,14,12,20.00
2010,01,19,14,13,22.30
2010,01,19,14,14,23.30
2010,01,19,14,15,24.00
2010,01,19,14,16,20.00
2010,01,19,14,17,20.80
2010,01,19,14,18,24.90
2010,01,19,14,19,20.30
2010,01,19,14,20,25.10
2010,01,19,14,21,22.30
2010,01,19,14,22,19.80
2010,01,19,14,23,23.50
2010,01,19,14,24,23.50
2010,01,19,14,25,23.70
2010,01,19,14,26,27.00
2010,01,19,14,27,21.40
2010,01,19,14,28,23.70
2010,01,19,14,29,24.70
2010,01,19,14,30,24.30
2010,01,19,14,31,27.40
2010,01,19,14,32,30.90
2010,01,19,14,33,25.20
2010,01,19,14,34,25.20
2010,01,19,14,35,24.80
2010,01,19,14,36,25.00
2010,01,19,14,37,20.80
2010,01,19,14,38,23.90
2010,01,19,14,39,22.90
2010,01,19,14,40,24.50
2010,01,19,14,41,27.80
2010,01,19,14,42,29.20
2010,01,19,14,43,25.00
2010,01,19,14,44,25.30
2010,01,19,14,45,26.20
2010,01,19,14,46,27.50
2010,01,19,14,47,22.50
2010,01,19,14,48,24.50
2010,01,19,14,49,23.10
2010,01,19,14,50,23.00
2010,01,19,14,51,28.80
2010,01,19,14,52,24.00
2010,01,19,14,53,24.70
2010,01,19,14,54,26.70
2010,01,19,14,55,26.20
2010,01,19,14,56,22.00
2010,01,19,14,57,25.30
2010,01,19,14,58,24.40
2010,01,19,14,59,23.50
2010,01,19,15,00,22.80
2010,01,19,15,01,23.20
2010,01,19,15,02,19.60
2010,01,19,15,03,21.80
2010,01,19,15,04,21.30
2010,01,19,15,05,24.60
2010,01,19,15,06,16.60
2010,01,19,15,07,20.80
2010,01,19,15,08,25.50
2010,01,19,15,09,21.90
2010,01,19,15,10,18.10
2010,01,19,15,11,19.10
2010,01,19,15,12,22.40
2010,01,19,15,13,23.10
2010,01,19,15,14,23.20
2010,01,19,15,15,22.80
2010,01,19,15,16,21.60
2010,01,19,15,17,25.90
2010,01,19,15,18,23.30
2010,01,19,15,19,20.50
2010,01,19,15,20,25.10
2010,01,19,15,21,23.70
2010,01,19,15,22,21.60
2010,01,19,15,23,19.90
2010,01,19,15,24,21.80
2010,01,19,15,25,20.00
2010,01,19,15,26,18.90
2010,01,19,15,27,20.70
2010,01,19,15,28,20.10
2010,01,19,15,29,20.80
2010,01,19,15,30,19.90
2010,01,19,15,31,17.00
2010,01,19,15,32,19.20
2010,01,19,15,33,17.70
2010,01,19,15,34,22.30
2010,01,19,15,35,22.90
2010,01,19,15,36,21.10
2010,01,19,15,37,19.60
2010,01,19,15,38,19.80
2010,01,19,15,39,18.50
2010,01,19,15,40,18.00
2010,01,19,15,41,18.00
2010,01,19,15,42,22.40
2010,01,19,15,43,20.00
2010,01,19,15,44,19.70
2010,01,19,15,45,20.70
2010,01,19,15,46,20.90
2010,01,19,15,47,20.80
2010,01,19,15,48,20.40
2010,01,19,15,49,22.30
2010,01,19,15,50,21.40
2010,01,19,15,51,20.80
2010,01,19,15,52,21.20
2010,01,19,15,53,18.20
2010,01,19,15,54,22.60
2010,01,19,15,55,21.10
2010,01,19,15,56,20.80
2010,01,19,15,57,22.30
2010,01,19,15,58,18.40
2010,01,19,15,59,19.90
2010,01,19,16,00,22.30
2010,01,19,16,01,22.60
2010,01,19,16,02,25.90
2010,01,19,16,03,23.20
2010,01,19,16,04,18.70
2010,01,19,16,05,23.30
2010,01,19,16,06,18.50
2010,01,19,16,07,20.30
2010,01,19,16,08,14.70
2010,01,19,16,09,17.10
2010,01,19,16,10,19.10
2010,01,19,16,11,22.50
2010,01,19,16,12,20.90
2010,01,19,16,13,21.50
2010,01,19,16,14,18.70
2010,01,19,16,15,17.40
2010,01,19,16,16,23.20
2010,01,19,16,17,22.20
2010,01,19,16,18,21.20
2010,01,19,16,19,19.60
2010,01,19,16,20,17.10
2010,01,19,16,21,19.60
2010,01,19,16,22,20.60
2010,01,19,16,23,21.40
2010,01,19,16,24,17.50
2010,01,19,16,25,17.50
2010,01,19,16,26,14.90
2010,01,19,16,27,18.40
2010,01,19,16,28,19.60
2010,01,19,16,29,24.00
2010,01,19,16,30,20.90
2010,01,19,16,31,16.70
2010,01,19,16,32,18.70
2010,01,19,16,33,17.40
2010,01,19,16,34,16.40
2010,01,19,16,35,16.30
2010,01,19,16,36,16.70
2010,01,19,16,37,17.00
2010,01,19,16,38,15.70
2010,01,19,16,39,17.90
2010,01,19,16,40,15.50
2010,01,19,16,41,15.10
2010,01,19,16,42,15.50
2010,01,19,16,43,14.40
2010,01,19,16,44,15.90
2010,01,19,16,45,16.90
2010,01,19,16,46,17.50
2010,01,19,16,47,17.00
2010,01,19,16,48,21.50
2010,01,19,16,49,20.80
2010,01,19,16,50,19.30
2010,01,19,16,51,18.70
2010,01,19,16,52,17.20
2010,01,19,16,53,17.40
2010,01,19,16,54,17.60
2010,01,19,16,55,16.60
2010,01,19,16,56,18.20
2010,01,19,16,57,18.00
2010,01,19,16,58,15.00
2010,01,19,16,59,21.20
2010,01,19,17,00,20.00
2010,01,19,17,01,19.20
2010,01,19,17,02,15.90
2010,01,19,17,03,24.50
2010,01,19,17,04,22.80
2010,01,19,17,05,21.80
2010,01,19,17,06,24.90
2010,01,19,17,07,20.40
2010,01,19,17,08,17.10
2010,01,19,17,09,13.20
2010,01,19,17,10,15.00
2010,01,19,17,11,19.60
2010,01,19,17,12,20.40
2010,01,19,17,13,20.50
2010,01,19,17,14,16.40
2010,01,19,17,15,17.10
2010,01,19,17,16,23.90
2010,01,19,17,17,24.00
2010,01,19,17,18,26.10
2010,01,19,17,19,17.70
2010,01,19,17,20,20.40
2010,01,19,17,21,22.90
2010,01,19,17,22,22.20
2010,01,19,17,23,19.90
2010,01,19,17,24,21.20
2010,01,19,17,25,18.60
2010,01,19,17,26,18.70
2010,01,19,17,27,19.60
2010,01,19,17,28,22.40
2010,01,19,17,29,23.30
2010,01,19,17,30,24.40
2010,01,19,17,31,21.20
2010,01,19,17,32,21.10
2010,01,19,17,33,17.30
2010,01,19,17,34,23.80
2010,01,19,17,35,19.70
2010,01,19,17,36,19.20
2010,01,19,17,37,21.40
2010,01,19,17,38,20.50
2010,01,19,17,39,21.30